Change the Weather History Date:

Friday, November 2, 2012

  Actual Average Record
Temperature  
Mean Temperature 46 °F -  
Max Temperature 61 °F 68 °F 82 °F (1982)
Min Temperature 30 °F 44 °F 22 °F (2014)
Degree Days  
Heating Degree Days 19    
Moisture  
Dew Point 34 °F    
Average Humidity 61    
Maximum Humidity 96    
Minimum Humidity 35    
Precipitation  
Precipitation 0.00 in - - ()
Sea Level Pressure  
Sea Level Pressure 30.02 in    
Wind  
Wind Speed 3 mph (NW)    
Max Wind Speed 10 mph    
Max Gust Speed -    
Visibility 10 miles    
Events      
Averages and records for this station are not official NWS values.
T = Trace of Precipitation, MM = Missing Value Source: NWS Daily Summary

Daily Weather History Graph

Daily Weather History Graph

Search for Another Location

Airport or City:

Trip Planner

Search our weather history database for the weather conditions in past years. The results will help you decide how hot, cold, wet, or windy it might be!

Date:

Astronomy

Nov. 02, 2012 Rise Set
Actual Time 7:04 AM CDT 5:40 PM CDT
Civil Twilight 6:37 AM CDT 6:07 PM CDT
Nautical Twilight 6:07 AM CDT 6:38 PM CDT
Astronomical Twilight 5:36 AM CDT 7:08 PM CDT
Moon 8:30 PM CDT (11/2) 10:21 AM CDT (11/2)
Length of Visible Light 11h 29m
Length of Day
10h 35m
Waning Gibbous, 87% of the Moon is Illuminated
Nov 2
Waning Gibbous
Nov 6
Last Quarter
Nov 13
New
Nov 20
First Quarter
Nov 28
Full

Hourly Weather History & Observations

Time (CDT) Temp. Windchill Dew Point Humidity Pressure Visibility Wind Dir Wind Speed Gust Speed Precip Events Conditions
12:56 AM 41.0 °F - 34.0 °F 76% 29.97 in 10.0 mi Calm Calm - N/A   Overcast
1:56 AM 41.9 °F - 34.9 °F 76% 29.95 in 10.0 mi Calm Calm - N/A   Overcast
2:56 AM 43.9 °F - 36.9 °F 76% 29.94 in 10.0 mi Calm Calm - N/A   Overcast
3:56 AM 45.9 °F - 36.0 °F 68% 29.92 in 10.0 mi Calm Calm - N/A   Overcast
4:56 AM 50.0 °F - 34.0 °F 54% 29.92 in 10.0 mi SW 5.8 mph - N/A   Mostly Cloudy
5:56 AM 50.0 °F - 34.9 °F 56% 29.92 in 10.0 mi SW 8.1 mph - N/A   Mostly Cloudy
6:56 AM 50.9 °F - 36.0 °F 57% 29.95 in 10.0 mi West 8.1 mph - N/A   Mostly Cloudy
7:56 AM 50.9 °F - 36.9 °F 59% 29.98 in 10.0 mi West 6.9 mph - N/A   Partly Cloudy
8:56 AM 54.0 °F - 36.9 °F 52% 30.01 in 10.0 mi WNW 10.4 mph - N/A   Mostly Cloudy
9:56 AM 54.9 °F - 36.9 °F 51% 30.02 in 10.0 mi NW 6.9 mph - N/A   Clear
10:56 AM 56.8 °F - 36.0 °F 46% 30.03 in 10.0 mi North 8.1 mph - N/A   Clear
11:56 AM 59.0 °F - 34.9 °F 40% 30.02 in 10.0 mi NW 9.2 mph - N/A   Clear
12:56 PM 59.9 °F - 32.0 °F 35% 30.01 in 10.0 mi North 10.4 mph - N/A   Clear
1:56 PM 59.9 °F - 32.9 °F 36% 30.00 in 10.0 mi North 8.1 mph - N/A   Clear
2:56 PM 61.0 °F - 32.9 °F 35% 30.01 in 10.0 mi North 5.8 mph - N/A   Clear
3:56 PM 59.9 °F - 32.0 °F 35% 30.02 in 10.0 mi North 6.9 mph - N/A   Clear
4:56 PM 57.9 °F - 32.0 °F 37% 30.03 in 10.0 mi Calm Calm - N/A   Clear
5:56 PM 43.9 °F 41.3 °F 34.0 °F 68% 30.05 in 10.0 mi NNW 4.6 mph - N/A   Clear
6:56 PM 45.9 °F - 32.9 °F 61% 30.07 in 10.0 mi Calm Calm - N/A   Clear
7:56 PM 37.9 °F - 32.0 °F 79% 30.09 in 10.0 mi Calm Calm - N/A   Clear
8:56 PM 34.0 °F - 31.1 °F 89% 30.11 in 10.0 mi Calm Calm - N/A   Clear
9:56 PM 31.1 °F - 30.0 °F 96% 30.12 in 10.0 mi Calm Calm - N/A   Clear
10:56 PM 32.0 °F - 30.0 °F 92% 30.12 in 10.0 mi Calm Calm - N/A   Clear
11:56 PM 30.0 °F - 29.1 °F 96% 30.12 in 10.0 mi Calm Calm - N/A   Clear